W4MSI Weather Reports


Display with metric or nautical units.
time (UTC)temp
F
wind
direction
speed
MPH
gust
MPH
rain 1hr
in
rain 24hr
in
rain mn
in
humidity
%
barometer
mb
20260906115236 72 189 0.0 0.0 0.00 0.00 0.00 93 1013.0
20260906114735 72 190 0.0 0.0 0.00 0.00 0.00 93 1013.0
20260906114230 72 291 0.0 0.0 0.00 0.00 0.00 93 1012.9
20260906113725 72 291 0.0 0.0 0.00 0.00 0.00 93 1012.9
20260906113225 72 276 0.0 0.0 0.00 0.00 0.00 93 1012.8
20260906112724 72 276 0.0 0.0 0.00 0.00 0.00 93 1012.5
20260906112221 72 276 0.0 0.0 0.00 0.00 0.00 93 1012.7
20260906111721 72 276 0.0 0.0 0.00 0.00 0.00 93 1012.4
20260906111215 72 300 0.0 0.0 0.00 0.00 0.00 93 1012.5
20260906110710 72 256 1.0 1.0 0.00 0.00 0.00 93 1012.4
20260906110207 72 1 2.0 2.0 0.00 0.00 0.00 92 1012.4
20260906105705 72 198 0.0 0.0 0.00 0.00 0.00 92 1012.1
20260906105202 72 198 0.0 0.0 0.00 0.00 0.00 92 1012.1
20260906104701 73 198 0.0 0.0 0.00 0.00 0.00 91 1012.2
20260906104200 73 198 0.0 0.0 0.00 0.00 0.00 90 1012.2
20260906103658 73 197 0.0 0.0 0.00 0.00 0.00 90 1012.0
20260906103153 73 198 0.0 0.0 0.00 0.00 0.00 89 1012.1
20260906102649 73 197 0.0 0.0 0.00 0.00 0.00 89 1012.0
20260906102148 74 197 0.0 0.0 0.00 0.00 0.00 88 1011.8
20260906101648 74 197 0.0 0.0 0.00 0.00 0.00 87 1011.9
20260906101142 74 197 0.0 0.0 0.00 0.00 0.00 88 1012.0
20260906100638 74 197 0.0 0.0 0.00 0.00 0.00 88 1011.8
20260906100134 74 197 0.0 0.0 0.00 0.00 0.00 88 1011.9
20260906095634 74 197 0.0 1.0 0.00 0.00 0.00 87 1011.7
20260906095129 75 206 0.0 0.0 0.00 0.00 0.00 87 1011.7
20260906094628 75 204 1.0 1.0 0.00 0.00 0.00 87 1011.8
20260906094124 75 202 0.0 0.0 0.00 0.00 0.00 85 1011.7
20260906093620 75 202 0.0 0.0 0.00 0.00 0.00 85 1011.8
20260906093120 75 194 0.0 0.0 0.00 0.00 0.00 85 1011.8
20260906092615 75 202 1.0 1.0 0.00 0.00 0.00 85 1011.7
20260906092110 76 210 0.0 1.0 0.00 0.00 0.00 84 1011.5
20260906091606 76 201 1.0 1.0 0.00 0.00 0.00 83 1011.5
20260906091103 76 206 1.0 2.0 0.00 0.00 0.00 83 1011.5
20260906090602 76 201 2.0 2.0 0.00 0.00 0.00 83 1011.7
20260906085601 75 205 1.0 2.0 0.00 0.00 0.00 84 1011.5
20260906085056 75 212 1.0 1.0 0.00 0.00 0.00 85 1011.6
20260906084551 75 206 0.0 0.0 0.00 0.00 0.00 85 1011.6
20260906084049 75 206 0.0 0.0 0.00 0.00 0.00 83 1011.4
20260906083545 75 203 0.0 0.0 0.00 0.00 0.00 83 1011.4
20260906083045 75 203 0.0 0.0 0.00 0.00 0.00 83 1011.6
20260906082540 75 203 0.0 0.0 0.00 0.00 0.00 83 1011.6
20260906082036 75 203 0.0 0.0 0.00 0.00 0.00 83 1011.6
20260906081532 75 203 0.0 0.0 0.00 0.00 0.00 83 1011.5
20260906081027 76 203 0.0 0.0 0.00 0.00 0.00 82 1011.5
20260906080524 76 199 0.0 0.0 0.00 0.00 0.00 81 1011.4
20260906080020 75 207 1.0 2.0 0.00 0.00 0.00 81 1011.5
20260906075519 75 215 0.0 0.0 0.00 0.00 0.00 81 1011.6
20260906075014 76 215 0.0 0.0 0.00 0.00 0.00 80 1011.5
20260906074509 76 215 0.0 0.0 0.00 0.00 0.00 80 1011.5
20260906074007 76 215 0.0 0.0 0.00 0.00 0.00 80 1011.8
20260906073502 76 215 0.0 0.0 0.00 0.00 0.00 79 1011.7
20260906072958 76 219 0.0 1.0 0.00 0.00 0.00 79 1011.7
20260906072453 76 198 1.0 1.0 0.00 0.00 0.00 80 1011.9
20260906071949 76 212 3.0 3.0 0.00 0.00 0.00 79 1011.8
20260906071445 76 208 0.0 1.0 0.00 0.00 0.00 79 1011.6
20260906070941 76 195 2.0 2.0 0.00 0.00 0.00 78 1011.8
20260906070436 76 206 1.0 1.0 0.00 0.00 0.00 78 1011.7
20260906065932 76 337 1.0 1.0 0.00 0.00 0.00 78 1011.7
20260906065426 77 166 1.0 1.0 0.00 0.00 0.00 77 1012.0
20260906064922 77 184 0.0 0.0 0.00 0.00 0.00 76 1011.8
20260906064418 77 130 0.0 0.0 0.00 0.00 0.00 76 1011.8
20260906063912 77 52 1.0 1.0 0.00 0.00 0.00 75 1011.7
20260906063407 77 203 0.0 1.0 0.00 0.00 0.00 74 1011.7
20260906062902 77 140 1.0 1.0 0.00 0.00 0.00 74 1012.0
20260906062401 78 129 1.0 1.0 0.00 0.00 0.00 74 1011.7
20260906061857 78 198 3.0 3.0 0.00 0.00 0.00 73 1011.8
20260906061354 78 158 0.0 0.0 0.00 0.00 0.00 73 1011.9
20260906060848 78 151 3.0 3.0 0.00 0.00 0.00 73 1012.1
20260906060346 77 152 1.0 1.0 0.00 0.00 0.00 74 1012.1
20260906055841 77 135 1.0 1.0 0.00 0.00 0.00 74 1012.0
20260906055337 77 139 0.0 0.0 0.00 0.00 0.00 75 1012.1
20260906054832 77 125 0.0 0.0 0.00 0.00 0.00 75 1012.0
20260906054327 77 126 0.0 0.0 0.00 0.00 0.00 76 1012.1
20260906053823 77 125 0.0 0.0 0.00 0.00 0.00 75 1012.2
20260906053319 77 125 0.0 1.0 0.00 0.00 0.00 73 1012.1
20260906052814 78 47 0.0 0.0 0.00 0.00 0.00 75 1012.1
20260906052310 78 46 0.0 0.0 0.00 0.00 0.00 73 1012.1
20260906051807 78 68 1.0 1.0 0.00 0.00 0.00 72 1012.3
20260906051306 79 177 0.0 0.0 0.00 0.00 0.00 71 1012.3
20260906050802 79 57 0.0 0.0 0.00 0.00 0.00 70 1012.3
20260906050257 79 117 1.0 2.0 0.00 0.00 0.00 70 1012.4
20260906045755 79 200 0.0 0.0 0.00 0.00 0.00 71 1012.4
20260906045250 79 149 1.0 2.0 0.00 0.00 0.00 71 1012.3
20260906044747 79 134 0.0 0.0 0.00 0.00 0.00 73 1012.4
20260906044241 79 26 1.0 2.0 0.00 0.00 0.00 73 1012.6
20260906043737 79 44 1.0 1.0 0.00 0.00 0.00 74 1012.4
20260906043233 79 103 1.0 1.0 0.00 0.00 0.00 74 1012.4
20260906042732 79 29 2.0 2.0 0.00 0.00 0.00 74 1012.4
20260906042231 79 139 2.0 3.0 0.00 0.00 0.00 74 1012.4
20260906041727 80 116 1.0 1.0 0.00 0.00 0.00 75 1012.1
20260906041222 80 63 0.0 1.0 0.00 0.00 0.00 73 1012.4
20260906040718 81 40 2.0 3.0 0.00 0.00 0.00 73 1012.4
20260906040214 81 61 3.0 7.0 0.00 0.00 0.00 73 1012.7
20260906035709 81 134 0.0 1.0 0.00 0.00 0.00 72 1012.6
20260906035204 82 145 1.0 1.0 0.00 0.00 0.00 73 1012.5
20260906034659 82 33 5.0 6.0 0.00 0.00 0.00 73 1012.9
20260906034153 82 22 3.0 3.0 0.00 0.00 0.00 73 1012.7
20260906033649 82 30 3.0 4.0 0.00 0.00 0.00 72 1012.9
20260906033149 82 58 2.0 3.0 0.00 0.00 0.00 73 1012.6
20260906032646 81 32 2.0 3.0 0.00 0.00 0.00 76 1012.5
20260906032146 81 42 1.0 1.0 0.00 0.00 0.00 77 1012.0
20260906031641 80 45 2.0 2.0 0.00 0.00 0.00 77 1012.2
20260906031137 80 69 2.0 2.0 0.00 0.00 0.00 78 1012.0
20260906030636 81 42 0.0 0.0 0.00 0.00 0.00 75 1011.7
20260906030131 82 42 0.0 0.0 0.00 0.00 0.00 73 1011.9
20260906025630 83 236 0.0 0.0 0.00 0.00 0.00 71 1011.9
20260906025130 84 236 0.0 0.0 0.00 0.00 0.00 69 1011.6
20260906024624 84 236 0.0 0.0 0.00 0.00 0.00 68 1011.6
20260906024119 83 236 0.0 0.0 0.00 0.00 0.00 69 1011.2
20260906023615 82 190 0.0 0.0 0.00 0.00 0.00 73 1011.6
20260906023109 82 45 0.0 0.0 0.00 0.00 0.00 73 1011.5
20260906022604 82 35 0.0 0.0 0.00 0.00 0.00 72 1011.3
20260906022100 82 36 1.0 1.0 0.00 0.00 0.00 71 1011.3
20260906021556 82 196 0.0 0.0 0.00 0.00 0.00 72 1011.1
20260906021054 82 65 0.0 0.0 0.00 0.00 0.00 73 1011.1
20260906020554 82 203 0.0 0.0 0.00 0.00 0.00 71 1011.1
20260906020054 80 212 1.0 1.0 0.00 0.00 0.00 75 1011.0
20260906015554 82 46 2.0 2.0 0.00 0.00 0.00 78 1011.2
20260906015054 0 0.0 0.0 0.00 0.00 0.00 1010.9
20260906014554 0 0.0 0.0 0.00 0.00 0.00 1010.7
20260906014050 0 0.0 0.0 0.00 0.00 0.00 1010.7
20260906013545 0 0.0 0.0 0.00 0.00 0.00 1010.8
20260906013040 0 0.0 0.0 0.00 0.00 0.00 1010.7
20260906012535 0 0.0 0.0 0.00 0.00 0.00 1010.6
20260906012035 86 232 0.0 0.0 0.00 0.00 0.00 65 1010.6
20260906011531 86 232 0.0 0.0 0.00 0.00 0.00 65 1010.5
20260906011031 86 232 0.0 0.0 0.00 0.00 0.00 64 1010.6
20260906010526 86 232 0.0 1.0 0.00 0.00 0.00 62 1010.7
20260906010022 86 209 0.0 0.0 0.00 0.00 0.00 63 1010.7
20260906005521 87 209 1.0 2.0 0.00 0.00 0.00 62 1010.7
20260906005021 86 222 1.0 1.0 0.00 0.00 0.00 61 1010.5
20260906004520 86 223 0.0 0.0 0.00 0.00 0.00 62 1010.6
20260906004015 86 223 0.0 0.0 0.00 0.00 0.00 63 1010.7
20260906003511 87 223 0.0 0.0 0.00 0.00 0.00 62 1010.7
20260906003007 87 223 0.0 0.0 0.00 0.00 0.00 61 1010.8
20260906002507 87 223 0.0 0.0 0.00 0.00 0.00 63 1010.8
20260906002001 88 223 0.0 0.0 0.00 0.00 0.00 60 1010.8
20260906001458 88 223 0.0 0.0 0.00 0.00 0.00 60 1010.9
20260906000952 88 223 0.0 0.0 0.00 0.00 0.00 57 1010.9
20260906000448 89 223 0.0 0.0 0.00 0.00 0.00 60 1010.9
20260905235942 90 223 0.0 0.0 0.00 0.00 0.00 57 1010.9
20260905235441 90 223 0.0 0.0 0.00 0.00 0.00 57 1010.8
20260905234937 91 223 0.0 0.0 0.00 0.00 0.00 55 1010.7
20260905234432 92 223 0.0 0.0 0.00 0.00 0.00 53 1010.9
20260905233926 92 223 0.0 0.0 0.00 0.00 0.00 54 1010.9
20260905233422 93 223 0.0 0.0 0.00 0.00 0.00 52 1010.7
20260905232921 94 223 0.0 0.0 0.00 0.00 0.00 51 1010.6
20260905232417 95 223 0.0 0.0 0.00 0.00 0.00 50 1010.7
20260905231912 96 222 0.0 0.0 0.00 0.00 0.00 47 1010.8
20260905231408 96 217 0.0 0.0 0.00 0.00 0.00 47 1010.8
20260905230904 96 219 0.0 0.0 0.00 0.00 0.00 47 1010.7
20260905230402 97 233 0.0 0.0 0.00 0.00 0.00 46 1010.8
20260905225901 97 188 0.0 0.0 0.00 0.00 0.00 46 1010.7
20260905225356 97 192 0.0 0.0 0.00 0.00 0.00 48 1010.7
20260905224851 98 321 0.0 0.0 0.00 0.00 0.00 46 1010.7
20260905224348 98 219 1.0 1.0 0.00 0.00 0.00 44 1010.4
20260905223842 98 252 0.0 0.0 0.00 0.00 0.00 43 1010.5
20260905223340 99 279 2.0 2.0 0.00 0.00 0.00 41 1010.7
20260905222840 99 310 2.0 2.0 0.00 0.00 0.00 40 1010.6
20260905222338 99 234 2.0 2.0 0.00 0.00 0.00 41 1010.5
20260905221835 99 216 0.0 0.0 0.00 0.00 0.00 44 1010.5
20260905221331 100 65 0.0 0.0 0.00 0.00 0.00 42 1010.7
20260905220827 100 265 2.0 3.0 0.00 0.00 0.00 41 1010.5
20260905220323 100 202 1.0 2.0 0.00 0.00 0.00 41 1010.6
20260905215822 100 197 0.0 0.0 0.00 0.00 0.00 43 1010.6
20260905215318 100 160 0.0 0.0 0.00 0.00 0.00 41 1010.6
20260905214814 100 223 0.0 0.0 0.00 0.00 0.00 41 1010.5
20260905214309 100 200 2.0 2.0 0.00 0.00 0.00 39 1010.8
20260905213805 98 328 2.0 3.0 0.00 0.00 0.00 40 1010.6
20260905213301 98 25 3.0 3.0 0.00 0.00 0.00 41 1010.8
20260905212801 100 5 1.0 2.0 0.00 0.00 0.00 42 1010.8
20260905212255 100 168 0.0 1.0 0.00 0.00 0.00 44 1010.7
20260905211755 100 83 2.0 2.0 0.00 0.00 0.00 41 1010.6
20260905211250 100 163 0.0 0.0 0.00 0.00 0.00 41 1010.7
20260905210747 101 229 2.0 2.0 0.00 0.00 0.00 39 1010.7
20260905210246 101 261 5.0 6.0 0.00 0.00 0.00 38 1011.0
20260905205745 101 233 3.0 4.0 0.00 0.00 0.00 39 1010.9
20260905205240 101 316 1.0 1.0 0.00 0.00 0.00 41 1011.0
20260905204739 101 248 2.0 3.0 0.00 0.00 0.00 40 1011.0
20260905204235 101 200 2.0 3.0 0.00 0.00 0.00 40 1011.0
20260905203735 100 176 0.0 0.0 0.00 0.00 0.00 41 1011.2
20260905203230 100 246 1.0 2.0 0.00 0.00 0.00 38 1011.3
20260905202726 100 259 1.0 1.0 0.00 0.00 0.00 42 1011.5
20260905202222 99 204 1.0 2.0 0.00 0.00 0.00 41 1011.4
20260905201717 99 288 1.0 2.0 0.00 0.00 0.00 41 1011.5
20260905201216 99 225 4.0 4.0 0.00 0.00 0.00 42 1011.6
20260905200712 98 232 1.0 2.0 0.00 0.00 0.00 42 1011.7
20260905200207 99 195 2.0 2.0 0.00 0.00 0.00 42 1011.6
20260905195705 100 277 1.0 1.0 0.00 0.00 0.00 43 1011.8
20260905195200 98 252 2.0 2.0 0.00 0.00 0.00 44 1011.8
20260905194656 97 221 0.0 0.0 0.00 0.00 0.00 45 1012.0
20260905194156 97 238 0.0 1.0 0.00 0.00 0.00 44 1012.0
20260905193655 98 261 0.0 0.0 0.00 0.00 0.00 45 1012.0
20260905193151 99 184 3.0 3.0 0.00 0.00 0.00 42 1011.7
20260905192646 99 190 5.0 6.0 0.00 0.00 0.00 43 1011.9
20260905192143 99 207 6.0 8.0 0.00 0.00 0.00 41 1012.2
20260905191642 99 214 1.0 2.0 0.00 0.00 0.00 41 1012.2
20260905191140 100 260 4.0 4.0 0.00 0.00 0.00 40 1012.4
20260905190638 99 178 1.0 1.0 0.00 0.00 0.00 42 1012.5
20260905190133 98 57 0.0 1.0 0.00 0.00 0.00 43 1012.4
20260905185631 99 252 3.0 3.0 0.00 0.00 0.00 40 1012.7
20260905185126 99 107 1.0 2.0 0.00 0.00 0.00 44 1012.4
20260905184626 99 1 2.0 3.0 0.00 0.00 0.00 43 1012.7
20260905184125 99 279 2.0 4.0 0.00 0.00 0.00 41 1012.5
20260905183624 97 185 2.0 2.0 0.00 0.00 0.00 42 1012.7
20260905183120 97 200 3.0 3.0 0.00 0.00 0.00 42 1012.8
20260905182619 98 216 5.0 7.0 0.00 0.00 0.00 42 1012.9
20260905182120 98 280 3.0 3.0 0.00 0.00 0.00 43 1012.8
20260905181620 98 204 2.0 2.0 0.00 0.00 0.00 42 1012.8
20260905181119 98 205 4.0 6.0 0.00 0.00 0.00 42 1012.9
20260905180614 98 202 1.0 1.0 0.00 0.00 0.00 41 1012.9
20260905180109 98 265 4.0 4.0 0.00 0.00 0.00 39 1013.0
20260905175608 96 216 4.0 4.0 0.00 0.00 0.00 44 1013.3
20260905175104 95 93 2.0 2.0 0.00 0.00 0.00 49 1013.4
20260905174600 96 29 3.0 4.0 0.00 0.00 0.00 47 1013.5
20260905174054 97 99 2.0 4.0 0.00 0.00 0.00 46 1013.4
20260905173551 98 142 1.0 1.0 0.00 0.00 0.00 45 1013.5
20260905173046 97 228 3.0 3.0 0.00 0.00 0.00 46 1013.6
20260905172545 97 93 3.0 4.0 0.00 0.00 0.00 45 1013.7
20260905172040 98 156 2.0 2.0 0.00 0.00 0.00 45 1013.7
20260905171537 98 267 3.0 3.0 0.00 0.00 0.00 44 1013.9
20260905171032 97 179 1.0 1.0 0.00 0.00 0.00 47 1013.9
20260905170529 96 191 2.0 2.0 0.00 0.00 0.00 47 1013.8
20260905170024 97 63 2.0 2.0 0.00 0.00 0.00 47 1013.9
20260905165519 97 299 0.0 1.0 0.00 0.00 0.00 47 1013.9
20260905165014 96 163 1.0 1.0 0.00 0.00 0.00 48 1013.7
20260905164514 96 48 2.0 2.0 0.00 0.00 0.00 51 1014.0
20260905164008 96 329 2.0 2.0 0.00 0.00 0.00 51 1014.0
20260905163505 96 235 2.0 2.0 0.00 0.00 0.00 51 1014.2
20260905163000 96 166 0.0 1.0 0.00 0.00 0.00 49 1014.1
20260905162455 96 202 2.0 3.0 0.00 0.00 0.00 49 1014.0
20260905161950 95 211 2.0 3.0 0.00 0.00 0.00 52 1014.2
20260905161450 95 27 3.0 4.0 0.00 0.00 0.00 50 1014.1
20260905160948 96 21 2.0 2.0 0.00 0.00 0.00 51 1014.3
20260905160442 95 285 4.0 4.0 0.00 0.00 0.00 50 1014.4
20260905155941 96 221 2.0 3.0 0.00 0.00 0.00 50 1014.3
20260905155436 95 242 1.0 1.0 0.00 0.00 0.00 53 1014.1
20260905154935 94 122 1.0 1.0 0.00 0.00 0.00 54 1014.4
20260905154430 95 145 0.0 1.0 0.00 0.00 0.00 53 1014.4
20260905153926 95 171 0.0 0.0 0.00 0.00 0.00 53 1014.4
20260905153422 95 120 2.0 3.0 0.00 0.00 0.00 53 1014.4
20260905152922 95 257 1.0 1.0 0.00 0.00 0.00 52 1014.5
20260905152421 95 287 1.0 1.0 0.00 0.00 0.00 55 1014.5
20260905151916 94 14 2.0 2.0 0.00 0.00 0.00 54 1014.6
20260905151412 94 348 4.0 4.0 0.00 0.00 0.00 53 1014.6
20260905150907 94 153 0.0 0.0 0.00 0.00 0.00 54 1014.6
20260905150406 94 144 1.0 2.0 0.00 0.00 0.00 55 1014.7
20260905145904 93 181 0.0 0.0 0.00 0.00 0.00 57 1014.7
20260905145404 93 48 0.0 1.0 0.00 0.00 0.00 56 1014.5
20260905144903 93 116 1.0 1.0 0.00 0.00 0.00 58 1014.7
20260905144359 93 101 1.0 1.0 0.00 0.00 0.00 60 1014.6
20260905143857 93 21 1.0 1.0 0.00 0.00 0.00 59 1014.8
20260905143352 92 175 0.0 1.0 0.00 0.00 0.00 59 1014.5
20260905142851 92 187 1.0 1.0 0.00 0.00 0.00 60 1014.6
20260905142350 92 24 1.0 2.0 0.00 0.00 0.00 60 1014.6
20260905141846 91 123 0.0 1.0 0.00 0.00 0.00 61 1014.7
20260905141341 91 264 2.0 2.0 0.00 0.00 0.00 61 1014.7
20260905140837 90 209 0.0 0.0 0.00 0.00 0.00 62 1014.9
20260905140337 90 285 1.0 1.0 0.00 0.00 0.00 62 1014.8
20260905135836 90 184 1.0 2.0 0.00 0.00 0.00 63 1014.8
20260905135332 90 49 0.0 0.0 0.00 0.00 0.00 65 1014.8
20260905134828 90 20 0.0 0.0 0.00 0.00 0.00 64 1014.7
20260905134326 89 165 0.0 1.0 0.00 0.00 0.00 68 1014.7
20260905133827 89 30 2.0 3.0 0.00 0.00 0.00 66 1014.9
20260905133322 89 145 0.0 0.0 0.00 0.00 0.00 68 1014.8
20260905132821 90 347 1.0 2.0 0.00 0.00 0.00 64 1014.7
20260905132317 89 359 0.0 0.0 0.00 0.00 0.00 67 1014.9
20260905131816 89 359 0.0 0.0 0.00 0.00 0.00 68 1014.8
20260905131312 89 250 0.0 0.0 0.00 0.00 0.00 67 1014.8
20260905130807 88 287 0.0 0.0 0.00 0.00 0.00 69 1014.9
20260905130306 88 288 0.0 0.0 0.00 0.00 0.00 69 1014.6
20260905125801 86 289 0.0 0.0 0.00 0.00 0.00 73 1014.5
20260905125256 85 289 0.0 0.0 0.00 0.00 0.00 75 1014.9
20260905124753 85 289 0.0 0.0 0.00 0.00 0.00 75 1014.7
20260905124248 84 289 0.0 0.0 0.00 0.00 0.00 76 1014.8
20260905123743 83 289 0.0 0.0 0.00 0.00 0.00 78 1014.8
20260905123240 82 289 0.0 0.0 0.00 0.00 0.00 79 1014.7
20260905122735 81 289 0.0 0.0 0.00 0.00 0.00 80 1014.7
20260905122234 80 289 0.0 0.0 0.00 0.00 0.00 81 1014.7
20260905121730 80 289 0.0 0.0 0.00 0.00 0.00 82 1014.8
20260905121226 79 289 0.0 0.0 0.00 0.00 0.00 83 1014.6
20260905120724 79 290 0.0 0.0 0.00 0.00 0.00 83 1014.5
20260905120219 78 290 0.0 0.0 0.00 0.00 0.00 83 1014.5
20260905115720 78 290 0.0 0.0 0.00 0.00 0.00 83 1014.4